Location: Sternwarte Zollern-Alb
(48.2880°N, 8.6780°E)
Time: 02:30:46
(UTC+02:00)

ISS - Pass Details

Date: 30 April 2026
Orbit: 414 x 424 km, 51.6° (Epoch: 19 May)

Event Time Altitude Azimuth Distance (km) Brightness Sun altitude
Exits shadow 02:29:05 17° 75° (ENE) 1,160 -1.2 -25.3°
Drops below altitude 10° 02:29:56 10° 72° (ENE) 1,499 -0.5 -25.2°
Sets 02:32:03 0° 68° (ENE) 2,367 0.6 -25.1°
